TimePDT,TemperatureF,Dew PointF,Humidity,Sea Level PressureIn,VisibilityMPH,Wind Direction,Wind SpeedMPH,Gust SpeedMPH,PrecipitationIn,Events,Conditions,WindDirDegrees,DateUTC
12:52 AM,71.1,26.1,19,29.76,10.0,WSW,5.8,-,N/A,,Clear,240,2013-04-25 07:52:00
1:52 AM,64.0,30.9,29,29.75,10.0,East,4.6,-,N/A,,Clear,80,2013-04-25 08:52:00
2:52 AM,64.0,30.0,28,29.76,10.0,SW,5.8,-,N/A,,Clear,220,2013-04-25 09:52:00
3:52 AM,64.9,44.1,47,29.77,10.0,SW,9.2,-,N/A,,Clear,230,2013-04-25 10:52:00
4:52 AM,61.0,46.0,58,29.78,8.0,SSE,9.2,-,N/A,,Clear,160,2013-04-25 11:52:00
5:52 AM,60.1,46.0,60,29.81,10.0,SSE,9.2,-,N/A,,Clear,160,2013-04-25 12:52:00
6:52 AM,61.0,44.1,54,29.82,10.0,South,12.7,-,N/A,,Clear,170,2013-04-25 13:52:00
7:52 AM,64.9,44.1,47,29.84,10.0,South,10.4,-,N/A,,Clear,170,2013-04-25 14:52:00
8:52 AM,69.1,44.1,40,29.86,10.0,South,15.0,-,N/A,,Clear,170,2013-04-25 15:52:00
9:52 AM,72.0,45.0,38,29.88,10.0,SSE,11.5,-,N/A,,Clear,160,2013-04-25 16:52:00
10:52 AM,75.0,46.0,36,29.89,10.0,SE,9.2,-,N/A,,Clear,130,2013-04-25 17:52:00
11:52 AM,77.0,45.0,32,29.89,10.0,West,8.1,-,N/A,,Clear,260,2013-04-25 18:52:00
12:52 PM,78.1,45.0,31,29.89,10.0,WSW,4.6,17.3,N/A,,Clear,240,2013-04-25 19:52:00
1:52 PM,81.0,41.0,24,29.88,10.0,Variable,6.9,-,N/A,,Clear,0,2013-04-25 20:52:00
2:52 PM,84.0,35.1,17,29.87,10.0,ENE,4.6,-,N/A,,Clear,70,2013-04-25 21:52:00
3:52 PM,84.9,34.0,16,29.84,10.0,NW,5.8,-,N/A,,Clear,320,2013-04-25 22:52:00
4:52 PM,88.0,28.0,12,29.84,10.0,NNW,11.5,-,N/A,,Clear,330,2013-04-25 23:52:00
5:52 PM,84.0,37.9,19,29.84,10.0,SSE,5.8,-,N/A,,Clear,160,2013-04-26 00:52:00
6:52 PM,82.9,37.9,20,29.85,10.0,SE,6.9,-,N/A,,Clear,140,2013-04-26 01:52:00
7:52 PM,79.0,39.9,25,29.87,10.0,SSE,5.8,-,N/A,,Clear,160,2013-04-26 02:52:00
8:52 PM,78.1,37.0,23,29.90,10.0,SSE,5.8,-,N/A,,Clear,160,2013-04-26 03:52:00
9:52 PM,73.0,39.0,29,29.92,10.0,SE,5.8,-,N/A,,Clear,130,2013-04-26 04:52:00
10:52 PM,72.0,39.9,31,29.94,10.0,Calm,Calm,-,N/A,,Clear,0,2013-04-26 05:52:00
11:52 PM,71.1,39.9,32,29.95,10.0,South,10.4,-,N/A,,Clear,170,2013-04-26 06:52:00